List of Articles
번호
제목
글쓴이 날짜 조회수sort
434 Eight Hallmarks Of An Excellent Internet Income Program 32626 TeriGoode06242424192 2019-03-20 48
433 Profile information ycolumam 2019-03-20 42
432 Ten Techniques To Improve Your Affiliate Commissions 36342 MarlysHollins841789 2019-03-20 41
431 Forums The Wonder Of Networking 46360 HarriettSvc7978481377 2019-03-20 40
430 Web Coupons As A Retail Strategy 43439 Benito80C820283 2019-03-20 40
429 Forums The Wonder Of Networking 19941 OXYDomingo354705 2019-03-20 40
428 Search Engine Optimization, SEO London And Search Engine Optimization UK 14581 MalcolmMartinson 2019-03-20 40
427 Drug Addiction And Recovery 45908 LionelCoburn2733 2019-03-20 40
426 Detox Or Detoxification - Whatever You Contact It , You Might Advantage 32589 EmeliaHarvill33379 2019-03-20 39
425 PHPBB: You Can Simplify The Set Up Procedure! 32562 Roberta26B03189239 2019-03-20 39
424 Search Engine Optimization, SEO London And Search Engine Optimization UK 49045 RolandoKaufman4734 2019-03-20 39
423 Top 10 Tips For Free Domain Traffic 34721 FETGus841884991082 2019-03-20 39
422 Traffic Psychology 41185 VictorGrey1262857727 2019-03-20 39
421 Ten Methods To Enhance Your Affiliate Commissions 12448 ElbaMckenney97227 2019-03-20 38
420 Eight Hallmarks Of A Great Affiliate Revenue Plan 33612 ShastaLees08318 2019-03-20 38
419 Online US & Canada Shopping Forum 11703 LeonelS2728706374 2019-03-20 38
418 Why Provide A Lot Of Thought On Search Engine Optimization 11634 MelodyApodaca2561730 2019-03-20 38
417 Banner Quảng Cáo Sân Bay BritneyFogg388949 2019-03-20 38
416 Detox Or Detoxification - Whatever You Call It , You Might Benefit 27485 AishaDemaio821504 2019-03-20 37
415 Blogging And SEO - A Perfect Small Business Web Marketer Match 44171 Arlene4848397481 2019-03-20 37
414 Detox Or Detoxification - Whatever You Contact It , You Might Benefit 43334 AlvaBroadhurst867159 2019-03-20 37
413 Fight The Exam Pressure 23247 YAAWallace9885765123 2019-03-20 37
412 On Line Writing - Is This The Perfect Subject? 37486 WinnieAlfonso25809 2019-03-20 37
411 Album Cover Art-Part Two 14538 BridgetteKnox51345 2019-03-20 37
410 Narcotic Pain Relief: Addiction Danger And Medication 49477 CarenDew003057304876 2019-03-20 37
409 Flood Insurance 45930 Oren84830141704337 2019-03-20 37
408 Addiction Treatment Centers For Substance Abuse 49480 MarlaFmq660536066438 2019-03-20 37
407 Top 10 Tips For Free Domain Traffic 42777 FionaGuillen92392 2019-03-20 36
406 Why Offer A Large Amount Of Thought On Seo 19152 HelenCasas92989578 2019-03-20 36
405 Established Great Things About A Weight Loss Forum 49743 NWPJannette03711 2019-03-20 36
404 If The Stocks Commence At Just Beneath A Dollar, How Can An Investor Hope To Turn Into Rich In The End? 22260 AmberHamann4403845 2019-03-20 36
403 Detox Or Detoxification - Whatever You Call It , You Might Advantage 47145 WaldoBurge775940 2019-03-20 36
402 Perks Of Purchasing Yourself Contemporary House Office Furnishings 29432 DomingoHenley96 2019-03-20 36
401 Avian Bird Flu Details 25964 MaricelaMcCasland61 2019-03-20 36
400 More Site Traffic From Higher Pr 21503 JacksonDoughty34344 2019-03-20 35
399 Detox Or Detoxification - Whatever You Contact It , You May Benefit 27635 ElisaCrist003104 2019-03-20 35
398 Detox Or Detoxification - Whatever You Contact It , You May Advantage 25653 MeiPaquin882672 2019-03-20 35
397 Blogging And SEO - A Perfect Small Business Internet Marketer Match 30629 JamesVwc0271741 2019-03-20 35
396 Dodge Grilles 24671 Roman50Z2533317 2019-03-20 35
395 Dirk Goes Wild And Suns Neglect To Address! 12761 Estelle18D97108 2019-03-20 35
394 News And The Internet 44563 MakaylaSummy8867 2019-03-20 35
393 The Great, The Bad And The Ugly Of-business Opportunities 48217 ShanelVjc2605272 2019-03-20 35
392 Dodge Grilles 23050 MonteYount23092 2019-03-20 35
391 Adam Rooney The Celebrity 23623 BerylCoomes48004514 2019-03-20 34
390 Addiction Remedy Centers For Substance Abuse 41195 AlmaMary2772430 2019-03-20 34
389 Addiction Therapy Centers For Substance Abuse 28420 JerilynEscalante85 2019-03-20 34
388 HEC Montreal 34859 ShielaDoughty0939 2019-03-20 34
387 Alcohol Detox Even If You Are Only A Social Drinker 44969 CeliaJarrett381 2019-03-20 34
386 Addiction Therapy Centers For Substance Abuse 45802 FreemanNorfleet 2019-03-20 33
385 Left Handed Metal Sets 16828 SOVMyron621964512 2019-03-20 33
384 Memorialize Your Very Own Wedding Ceremony Inside Scenic Las Vegas Wedding Venues 28198 StacieFontenot661 2019-03-20 33
383 Quilting Fabric The Personality Of A Quilt 24547 VilmaHammons65018655 2019-03-20 33
382 Welcome To The Indiana Schools 15917 CodyBain590512159 2019-03-20 33
381 Error Authenticating. Either Bad Username/Password Or Your Account Has Outstanding Payments Due 15966 MayMeece163126556 2019-03-20 33
380 Perfecting Your Web Site With SEO Organic Techniques 39772 LeticiaLoyd21078000 2019-03-20 33
379 News And The Internet 25920 LamarPrerauer42 2019-03-20 33
378 Back Ground History Of Lil Wayne 49645 TeenaMcIntosh027 2019-03-20 33
377 Addiction Therapy Centers For Substance Abuse 47488 BrianneMurch77375659 2019-03-20 33
376 Addiction Treatment Centers For Substance Abuse 11792 StarOShaughnessy901 2019-03-20 33
375 Drug Addiction And Recovery 36007 DeanaRingler9806 2019-03-20 33
374 The Rewards Of Wine 37705 FlorenceBurges22 2019-03-20 33
373 Making The The Majority Of Article Promotion 37377 OmerLeavitt2273 2019-03-20 33
372 The Positive Aspects Of Wine 41629 Irvin8591318569975584 2019-03-20 33
371 Welcome To The Indiana Schools 29406 ElyseWalters9260 2019-03-20 33
370 Automobile Auto Dealer Houston New 29849 Ramona22M801935991959 2019-03-20 32
369 6 Red Hot Ideas To Get Your Articles Study 33080 ShelleyRide643312 2019-03-20 32
368 From Visual Style To Web Development What Your Business Needs! 40716 Leonel63G180430742535 2019-03-20 32
367 Addiction Remedy Centers For Substance Abuse 19634 Aja49C799039946838784 2019-03-20 32
366 On The Web US & Canada Purchasing Forum 12157 Amelia10X2758391736 2019-03-20 32
365 Comparing Different E-Commerce Shopping Carts 43868 HollyColburn1263703 2019-03-20 32
364 Choosing The Plastic Surgeon 27392 MonserrateW45671 2019-03-20 32
363 The David Wright Details Record 28715 JeannaKulikowski0 2019-03-20 32
362 Detox Or Detoxification - Whatever You Get In Touch With It , You May Advantage 12332 AlejandrinaHurlburt6 2019-03-20 32
361 From Graphic Style To Web Development What Your Organization Needs! 45595 GeraldBingle280283364 2019-03-20 32
360 Addiction Treatment Centers For Substance Abuse 47292 ArmandoK3655449 2019-03-20 32
359 An Avowed Roofing Contractor-Your Best Option 28515 JannetteLockyer22 2019-03-20 32
358 What Is Your Role As A Parent To Help Prevent Drug Abuse? 30032 FredericDill3899 2019-03-20 32
357 Ton Insurance 33291 IvyJoshua627864802 2019-03-20 32
356 Search Engine Optimisation - How Bad Links Can Risk Your Rankings 17238 SabinaBaugh3891724 2019-03-20 31
355 Ton Insurance 17824 JustinS930798577 2019-03-20 31
354 What You Ought To Know About Negative Credit Auto Loan 15825 HarrisBaber4569941 2019-03-20 31
353 Dirk Goes Wild And Suns Neglect To Include! 39683 BerylHeckman142893 2019-03-20 31
352 Avian Bird Flu Details 37787 JoannaChinner234889 2019-03-20 31
351 The Potentials Of Yoga In Helping You Get Much Better Sleep 40879 TitusCuthbertson7 2019-03-20 31
350 A Glimpse Of The Past By Means Of Baton Rouge Historic Properties 36637 AlyciaDeLoitte01 2019-03-20 31
349 The Positive Aspects Of Wine 17264 AndraCormier884206 2019-03-20 31
348 Addiction Remedy Centers For Substance Abuse 30603 ByronEvz2724444694161 2019-03-20 31
347 Diving Accreditation 13210 PhillippLedbetter 2019-03-20 31
346 The Inexpensive Caribbean - The Islands Of Les Saintes 41209 SalinaStackhouse268 2019-03-20 31
345 Abuse Material Treatment System Review 29236 ChastityTrumble19 2019-03-20 31
344 When Do You Need To Use A Data Recovery Service? 37213 FredrickHaggerty207 2019-03-20 31
343 Could This Be The Following Great Monopoly? 38732 BFKKathlene8848209642 2019-03-20 31
342 Hold The Best Marriage Ceremony By Visiting Spectacular Las Vegas Wedding Venues 26684 BettieShowalter108 2019-03-20 31
341 HEC Montreal 34875 HaiDavey591601728907 2019-03-20 31
340 Tourist Attraction Excellent Wall Of China 27424 PaigeHouchins2285 2019-03-20 31
339 Autographed Activities Memorabilia And Gathering Them 25628 CandelariaCoffin 2019-03-20 31
338 Addiction Therapy Centers For Substance Abuse 15249 LTUBlanca477517567498 2019-03-20 31
337 Welcome To The Indianapolis Schools 14328 JamilaBartos60091067 2019-03-20 30
336 Dodge Grilles 29772 BertieDarr2026327277 2019-03-20 30
335 Error Authenticating. Either Bad Username/Password Or Your Account Has Outstanding Payments Due 37006 MichaelaSear40943 2019-03-20 30
334 HEC Montreal 47145 MikelBaillieu15022 2019-03-20 30
333 Las Vega Coupon Book 37891 TroyDransfield313609 2019-03-20 30
332 Addiction Therapy Centers For Substance Abuse 16922 KittyPfk081006002173 2019-03-20 30
331 Addiction Treatment Centers For Substance Abuse 12403 YQVDanielle94910219 2019-03-20 30
330 Addiction Therapy Centers For Substance Abuse 19121 GayConnely65929468596 2019-03-20 30
329 Addiction Treatment Centers For Substance Abuse 43935 RickeyTruong50057947 2019-03-20 30
328 Drug Addiction And Recovery 28756 EfrainEnyeart9101 2019-03-20 30
327 Welcome To The Indianapolis Schools 40985 BrittneyDixon012 2019-03-20 30
326 Puppy, Foe Or Friend 10456 CrystalLqn0528977 2019-03-20 30
325 Addiction Treatment Centers For Substance Abuse 25255 PeteThring6150957497 2019-03-20 30
324 Higher Blood Pressure And The Effects Of Alcohol 46455 MickieJewett39161 2019-03-20 29
323 News And The Web 16208 WyattEldred2991 2019-03-20 29
322 Subscription Management Software: Greater Management Of Member Accounts 23138 CorineBelstead046772 2019-03-20 29
321 Back Ground History Of Lil Wayne 38033 LindseySteil56073 2019-03-20 29
320 Wealth Management: Effectiveness Is A Must 18994 DarnellBurkholder7 2019-03-20 29
319 Alcohol Detoxification Even Although You Are Simply A Social Drinker 43268 ColeGrillo837215 2019-03-20 29
318 Addiction Remedy Centers For Substance Abuse 23481 KelvinGrooms05717 2019-03-20 29
317 Addiction Treatment Centers For Substance Abuse 44075 LBJLauna062254682401 2019-03-20 29
316 Addiction Treatment Centers For Substance Abuse 13207 MylesRaggatt0900 2019-03-20 29
315 Detox Or Detoxification - Whatever You Call It , You May Benefit 39719 MammieVqn0140306125 2019-03-20 29
314 Does My Daughter Or Son Need Therapy? 33699 DirkCintron306607 2019-03-20 29
313 Addiction Remedy Centers For Substance Abuse 19599 HesterRoyal133090 2019-03-20 28
312 Quilting Fabric The Personality Of A Quilt 45198 IolaTomaszewski275 2019-03-20 28
311 Does My Daughter Or Son Need Therapy? 13821 TheresaBlanton455 2019-03-20 28
310 Detox Or Detoxification - Whatever You Contact It , You Might Benefit 20241 ValerieBays7975808 2019-03-20 28
309 Addiction Therapy Centers For Substance Abuse 42838 LolitaLlanes79360244 2019-03-20 28
308 Balancing Your Decorating Tips 30880 ElissaDumolo350326640 2019-03-20 28
307 Addiction Treatment Centers For Substance Abuse 15116 LeahFaunce79416 2019-03-20 28
306 Seo - How Bad Links Can Risk Your Rankings 46534 BeulahMcGee08723 2019-03-20 28
305 Does My Son Or Daughter Need Therapy? 27452 LatashaGodson03290 2019-03-20 28
304 Search Engine Optimization - How Bad Links Can Risk Your Rankings 44404 NatashaBarna410713 2019-03-20 28
303 Insomnia A Side Impact Of Opiate Withdrawal 44576 DeonZ1318180917255 2019-03-20 28
302 Refining Your Web Site With SEO Organic Techniques 47644 OscarMeo3398665143540 2019-03-20 28
301 Brighton Bags -Information When Searching For Brighton Handbags 18319 Leonore99W831994 2019-03-20 28
300 Discount Coupon Book 42838 ElissaAnglin214338 2019-03-20 28
299 Addiction Treatment Centers For Substance Abuse 30656 AnneFrueh867676 2019-03-20 28
298 A Glimpse Of The Past Via Baton Rouge Historic Properties 34987 ElvinBosanquet3028 2019-03-20 28
297 Addiction Remedy Centers For Substance Abuse 45931 DarrelJameson1936 2019-03-20 28
296 What's Your Role As A Parent To Help Prevent Drug-abuse? 48456 DesireeQuilty18 2019-03-20 27
295 What's Your Role As A Parent To Aid Prevent Drug-abuse? 49722 EmanuelRicci2833094 2019-03-20 27
294 Addiction Therapy Centers For Substance Abuse 46796 KeiraCamara9470745 2019-03-20 27
293 Addiction Therapy Centers For Substance Abuse 26722 LettieTaverner3 2019-03-20 27
292 Cutting Heating Costs 29471 MirtaKingsley81290 2019-03-20 27
291 The Nice, The Poor And The Ugly Of Business Opportunities 27332 TaraScarbrough56574 2019-03-20 27
290 Tips To Help You Obtain House Improvement Done 35650 CharleneT929502866 2019-03-20 26
289 Autographed Activities Memorabilia And Gathering Them 20825 MilesBriggs213188787 2019-03-20 26
288 Honda Top Victoria: Change Is Good 45420 CelsaPaling7242938 2019-03-20 26
287 Welcome To The Indiana Schools 34161 ChelseyJtt3812586520 2019-03-20 25
286 Traffic Therapy 13041 ChangKobayashi293 2019-03-20 25
285 Drug Addiction And Recovery 37289 ShaneShah50797337 2019-03-20 25
284 Addiction Therapy Centers For Substance Abuse 17616 FayeGriego2593416 2019-03-20 25
283 Addiction Remedy Centers For Substance Abuse 11489 NicoleShillings3195 2019-03-20 25
282 An Avowed Roofing Contractor-Your Best Choice 17575 EdithBevins89373627 2019-03-20 25
281 Spirituality Information - Journey In The Fields Of Forever ( Component 69) 40644 JannettePegues0 2019-03-20 25
280 Addiction Remedy Centers For Substance Abuse 33707 JoannaFerris908 2019-03-20 25
279 All-Inclusive Honey Moon Offers 23309 BennieAncher005 2019-03-20 24
278 Dirk Goes Wild And Suns Fail To Include! 23096 OFVJose891445955 2019-03-20 24
277 The Ins And Outs Of Hilary Duff's Connections 19227 LaureneSpearman 2019-03-20 23
276 Punishment Material Treatment Plan Review 11263 JamalNieto080868629 2019-03-20 23
275 A Guyss Painless Guide To Proposal, Pt.1 18367 ShelaT7608661281182 2019-03-20 22
274 Effectiveness Of Painkillers In The Treatment Of Fibromyalgia 40060 LawannaHpz433551860 2019-03-20 22
273 Traffic Psychology 20470 BrandenBlaine77 2019-03-21 21
272 Wealth Management: Performance Is Really A Must 45435 MalindaMetzler1 2019-03-20 21
271 Reducing Heating Costs 49360 BrennaMulligan2031 2019-03-20 21
270 Addiction Treatment Centers For Substance Abuse 15518 RedaEva0632765030213 2019-03-21 19
269 Alcohol Detox Even If You Are Simply A Social Drinker 24350 JewellJak8019308 2019-03-21 19
268 Narcotic Discomfort Relief: Addiction Danger And Medication 43270 Tomoko18042369980 2019-03-21 18
267 Detox Or Detoxification - Whatever You Call It , You Might Advantage 13589 MicaelaWhiteman9801 2019-03-20 18
266 Detox Or Detoxification - Whatever You Contact It , You May Advantage 20592 ConcepcionD5490584059 2019-03-21 15
265 Want To Free Of Charge Pc Download Game 30182 DorcasKur231087654897 2019-03-21 12
264 Addiction Remedy Centers For Substance Abuse 33936 SuzetteDowdy077037445 2019-03-21 12
263 What You Should Know About Poor Credit Auto Loan 22928 PreciousHut586436015 2019-03-21 11
262 Dirk Goes Wild And Suns Neglect To Cover! 23325 KellyeAtherton5 2019-03-21 11
261 Welcome To The Indianapolis Schools 14485 SangWiley394756 2019-03-21 11
260 Addiction Therapy Centers For Substance Abuse 26933 AngeliaWentworth0832 2019-03-21 11
259 Welcome To The Indianapolis Schools 36313 ChandraJury911438 2019-03-21 10
258 Which E-bay Checkout System Is For You? 43457 EarnestineKirke 2019-03-21 9
257 Dodge Grilles 30380 PAMJustin825044 2019-03-21 9
256 Do You Require An Lawyer In Ohio? 29045 new SalvadorCollee8868 2019-03-21 8
255 Greatest Thai Restaurant Food Delivery In Las Vegas - Locating Hot Thai Food Delivered Very Quick In Sin City 31057 new BritneyCpw14029607 2019-03-21 8
254 Addiction Remedy Centers For Substance Abuse 49343 JorjaJaime5506130624 2019-03-21 8
253 Detox Or Detoxification - Whatever You Call It , You May Benefit 24307 TraceyCco125750 2019-03-21 8
252 Herbal Solutions For Rheumatoid Arthritis 49627 new Ned39F469745665 2019-03-21 7
251 Practicing In The Forex Market 42065 new AugustWhitely45159 2019-03-21 7
250 In Case You Go Digital? 30207 new KarenKrug544984075171 2019-03-21 7
249 Asbestos Testing- Necessary Protection Against Killer Illnesses 48296 new CheriZnk3987658 2019-03-21 7
248 Intelligent And Satirical T-Shirts From Fusilly, Inc 41380 new ShirleenSpann45120 2019-03-21 7
247 When Do You Need To Use A Data Recovery Service? 29568 new BretParra78266322 2019-03-21 7
246 Back Ground History Of Lil Wayne 27212 KristenGreeves82689 2019-03-21 7
245 Alcohol Therapy The 12 Step Program 30392 LeathaBales0077900 2019-03-21 7
244 Promotional Promotion Specialty Youve Waited Long Enough 16563 DonnieFlores823 2019-03-21 7
243 The Top Do-It-Yourself Home Improvement Tips 43837 new ZelmaGreenup3761 2019-03-21 6
242 Paid Online Study Tips - How To Avoid Getting Conned By Settled Online Review Programs 14897 new BrentonBerrios6155 2019-03-21 6
241 Practicing In The Forex Market 41755 new BetsyDadswell100881 2019-03-21 6
240 Addiction Therapy Centers For Substance Abuse 32979 new ChristinaElsass98 2019-03-21 6
239 A Look At Tips On How To Hook-up Business Opportunity Seekers. 12766 new JayneLewers46369256 2019-03-21 6
238 World Cup Will Be Highlighted By England Portugal Rematch From 1966! 34689 new WadeKaye540627760 2019-03-21 6
237 Energy Conservation Begins At Home 40447 new JoySpring26909370825 2019-03-21 6
236 Gaston County Criminal Records For Residents 13441 new LaunaMacGregor805 2019-03-21 6
235 Conflict Continues Between Home Builders Association And Orlando Schools 16181 new HQLHong847866711 2019-03-21 6
234 How You Can Grow A Money Tree 48294 new RoyToll52204451376 2019-03-21 6
233 Addiction Remedy Centers For Substance Abuse 37361 new MagdalenaFantl49 2019-03-21 6
232 HEC Montreal 16418 new LanceBarraclough508 2019-03-21 6
231 The Ins And Outs Of Hilary Duff's Relationships 28306 MelodeeBatts6504 2019-03-21 6
230 Autographed Sports Memorabilia And Obtaining Them 21847 SharronSynnot7624233 2019-03-21 6
229 Addiction Therapy Centers For Substance Abuse 37246 new HalinaHartfield 2019-03-21 5
228 Practicing In The Forex Industry 25870 new TIWMaryjo6563395433 2019-03-21 5
227 Dirk Goes Wild And Suns Fail To Protect! 41780 new SandyBinder7345839 2019-03-21 5
226 The Criminal Defense Lawyer Association 40724 new DoraFitzGibbon969024 2019-03-21 5
225 Detox Or Detoxification - Whatever You Get In Touch With It , You May Benefit 45829 new Colette86382220 2019-03-21 5
224 Alcohol Rehab When It's Necessary 20340 new EmilioKrouse812062 2019-03-21 5
223 Dirk Goes Wild And Suns Fail To Include! 29901 new SungBrant358982 2019-03-21 5
222 Las Vegas Wedding Invitation Wording - Help Is Here 39662 new JuniorRinehart349127 2019-03-21 5
221 Lost Hard Drive: Dont Panic 29054 new Paula30V84120288 2019-03-21 5
220 The Criminal Defense Lawyer Association 33826 new RochellBorthwick2 2019-03-21 5
219 Installing Custom Sheepkin Seat Covers 36423 new ClintonFlynn10526784 2019-03-21 5
218 How To Hire A Net Designer/Programmer For Your Website 37481 new Madonna38Y86344 2019-03-21 5
217 How To Make Your Dollar Worth In Toronto 18978 new ChadLoughlin623954 2019-03-21 5
216 Criminal Defense Attorneys 46410 new NicholasKopp33661602 2019-03-21 5
215 The Joy Of Brothers And Sisters Time 41869 new AntonyLackey8000188 2019-03-21 5
214 Write-up Writing Fundamentals - How To Make This Profitable Company Operate 22253 new KariOor982488981 2019-03-21 5
213 Methods For Choosing The Cooling Specialist 29807 new LamontGalea37896 2019-03-21 5
212 Ignoring Negative Criticism 46176 new BrittnyRidley0181912 2019-03-21 5
211 All The Remarkable Secrets About Go Karts In Calgary 30713 new TemekaNickerson 2019-03-21 5
210 Criminal Defense Lawyers 27519 new JamalVoyles376186 2019-03-21 5
209 Buzzy Buzz About Affiliate Advertising And Marketing 47209 new KathieLodewyckx0 2019-03-21 5
208 Debt Collection Tips - Making A Telephone Call new Sebastian37556326312 2019-03-21 5
207 Drug Addiction And Recovery 18877 new IndianaKibby065 2019-03-21 5
206 From Graphic Design To Web Develop-ment What Your Organization Needs! 14126 BeatrisGrizzard0 2019-03-21 5
205 Greatest Thai Las Vegas Restaurant Food Delivery - Getting Best Chinese Food Delivered Super Quick In Las Vegas 32647 new IsabelBranham504887 2019-03-21 4
204 Tips As Well As Details About Improving Your Dental Health And Wellness 14587 new ClementDeLissa62 2019-03-21 4
203 You Should Buy Legit Steroids Online 38163 new TorstenMorse365846878 2019-03-21 4
202 Control Your Internet TRAFFIC 25249 new KerrieSoukup29304506 2019-03-21 4
201 Septic Tanks - Danger Symptoms In A Rural Home 38935 new ZVGLucy90810793535267 2019-03-21 4
200 Is An All-Inclusive Vacation Package Right For You? 28180 new TammyConnibere69763 2019-03-21 4
199 Learn About The Different Types Of Roses 44994 new Dale52735116249780 2019-03-21 4
198 Las Vegas Wedding Invitation Wording - Help Is Here 28057 new MilesRandell62828 2019-03-21 4
197 Dropped Hard Drive: Dont Panic 20607 new JacksonZaleski329 2019-03-21 4
196 Why To Get Original Legit Anabolic Steroids? 38220 new NannieLarkins176328 2019-03-21 4
195 Elegant Techniques To Say I Do In Las Vegas 13845 new NataliaPerales1598 2019-03-21 4
194 Know About Myspace Tracker Scams 14491 new Eva08S704573358092 2019-03-21 4
193 Cream Compared To. Skin Care Creams 14777 new FideliaDiehl62436 2019-03-21 4
192 The Teacher Advancement Plan At Cincinnati Schools Tries To Keep Good Teachers 38823 new Shayna85614206210 2019-03-21 4
191 Criminal Defense Lawyers 25335 new ShaunI417347098 2019-03-21 4
190 Just How To Podcast Using Wordpress 29829 new BennettEtienne37775 2019-03-21 4
189 Criminal Injury Claim - Are You Serious 32915 new RNXTamela77287395 2019-03-21 4
188 Lake Hopatcong; A Secondary Paradise 48442 new DavidA4014764425 2019-03-21 4
187 Drug Rehabilitation An Introduction 20789 new BerndMondragon47122 2019-03-21 4
186 What Is The Air Like Up There? 21687 new CharleneYws130396 2019-03-21 4
185 Addiction Therapy Centers For Substance Abuse 17139 new CliffordW5308987 2019-03-21 4
184 An Understanding Of Mesothelioma Lead To 10394 new AntonySsd953617527 2019-03-21 4
183 Finding Coupons 41011 new AnnabelleHerrod05942 2019-03-21 4
182 Quảng Cáo Sân Bay Nội Bài Hà Nội new SamiraCrook34545 2019-03-21 4
181 Prostate Stimulation Strategies 33363 new LeonoreCreech32591 2019-03-21 4
180 Effectiveness Of Painkillers In The Treatment Of Fibromyalgia 38229 new JonathonWhyte15 2019-03-21 4
179 Does My Child Need Therapy? 43622 new AbigailFlemming 2019-03-21 4
178 News And The Web 37174 new DelilahSymon96945 2019-03-21 3
177 Different Moving Overseas Services 39477 new Trudy32N5887683548 2019-03-21 3
176 Addiction Treatment Centers For Substance Abuse 18463 new OrlandoGoodenough491 2019-03-21 3
175 Narcotic Discomfort Relief: Addiction Threat And Medication 31729 new ShaneLindell26476 2019-03-21 3
174 Alcohol Rehab If It Is Necessary 35937 new MelodeePlayford470 2019-03-21 3
173 Dirk Goes Wild And Suns Fail To Cover! 28998 new FlorianMillican81 2019-03-21 3
172 Control Your Web TRAFFIC 47478 new PrinceTorrez696 2019-03-21 3
171 Improving Your Web Site With SEO Organic Techniques 12535 new DarlaSalomons7607302 2019-03-21 3
170 Is Picking A Surgeon Pot Luck? 37041 new NorineHumphery97 2019-03-21 3
169 Introduction To Business Show Features 21989 new WKUCassie3915190 2019-03-21 3
168 Recovery From Addictions, Part 4 24519 new IAKRefugia5396445 2019-03-21 3
167 Alcohol Detoxification Even If You Are Simply A Social Drinker 10203 new AnhBrookfield6281 2019-03-21 3
166 Several Moving Overseas Services 37387 new Antoinette43G9631 2019-03-21 3
165 Significant Skin Care 22376 new LinoKalb3712187472215 2019-03-21 3
164 What You Need To Check For When Purchasing A Home In Las Vegas 28018 new KarlX5914878097149860 2019-03-21 3
163 The Actual Facts About Foreign Merino Wool 44347 new LeathaReno50818229 2019-03-21 3
162 Plumbing Dilemmas May Require A Plumbing Company 15014 new CaseyCastles17215976 2019-03-21 3
161 Write-up Writing The Midas Touch Of Hyperlink Approaches 26467 new FlorentinaKraft54 2019-03-21 3
160 What To Consider When Choosing An All-inclusive Caribbean Hotel 25950 new MelodeeLayton726 2019-03-21 3
159 Alcohol Rehab When It Is Necessary 26809 new ShaunteOReilly6571 2019-03-21 3
158 How Can You Know If You Have A Superb Mortgage Broker? 12785 new Sibyl92L397574946 2019-03-21 3
157 A How-To Overview For A Dazzling White Smile 22087 new KarissaNason00779 2019-03-21 3
156 Substance Abuse Treatment In-to Main-stream Of Healthcare Process 24361 new AlannaBirkbeck0901 2019-03-21 3
155 Wildfire Productions Announces Release Of Latest Client Site: Just Art Related 25364 new NellyHeckel0418332 2019-03-21 3
154 Finding Coupons 19324 new JuneLockie64786 2019-03-21 3
153 Can Be Your Air Conditioning Filter Important? 28157 new EstelleWheen90499 2019-03-21 3
152 Make Your Honeymoon Holidays In Munnar, Kerala 46047 new KristinChamplin4 2019-03-21 3
151 Plumbing Dilemmas May Possibly Demand A Plumbing Builder 46514 new CiaraZgj1034253650 2019-03-21 3
150 Types Of Online Stores 26993 new DarinHepp633716200065 2019-03-21 3
149 Specialist Recruitment Firms Could Make Your Organization Money 42153 new Audry55S4995675 2019-03-21 3
148 Making Your Money Worth In Toronto 39270 new HerbertProuty69 2019-03-21 3
147 Types Of Online Stores 30601 new DarrylBaehr91868 2019-03-21 3
146 Productive Cocaine Treatment For Your Loved One Particular 35373 new KAXMickey662931300206 2019-03-21 3
145 If The Stocks Start Off At Just Beneath A Dollar, How Can An Investor Hope To Turn Into Wealthy In The End? 15508 new HiramVelazquez04 2019-03-21 3
144 Back Ground Checks - How They Are Able To Help Your Company 19913 new LuisaBelbin9848361 2019-03-21 3
143 Finding The Right Bankruptcy Alternatives To Your Requirements 12750 new LuisaPinkney71507 2019-03-21 3
142 News And The Web 29567 new Hulda54D549093375609 2019-03-21 3
141 Detox Or Detoxification - Whatever You Get In Touch With It , You May Possibly Benefit 48092 new NPOAbraham16187106640 2019-03-21 3
140 Addiction Remedy Centers For Substance Abuse 41276 new Susana9301920450599 2019-03-21 3
139 SEO Guidelines Search Engine Marketing 30046 new PhilChappell923858 2019-03-21 3
138 Only A Little About Prostate Cancer 23116 new SibylPink291645 2019-03-21 3
137 Bac Si Gia Dinh new Von29312723264597 2019-03-21 3
136 Seem Inside To Find Out How To Breast-enhancement Effects 47028 new OrvalB234722202864 2019-03-21 3
135 Decide To Purchase Panama Real Estate With A Self Directed IRA 19307 new LaylaWisniewski8328 2019-03-21 3
134 To Use Or Not To Use Google Adwords 40164 new GerardBarreto29 2019-03-21 3
133 Celebrate Your Incredible Marriage In Eye-catching Las Vegas Wedding Venues 18934 new LorenaHague785939 2019-03-21 3
132 Worthwhile Expired Areas 42527 new Sanora8156511757500 2019-03-21 3
131 News And The Web 26163 new WilmerSteffan6983658 2019-03-21 3
130 Máy Giặt Chăn Công Nghiệp Giá Bao Nhiêu? new DottySellar0337932627 2019-03-21 3
129 Profile information new amikyh 2019-03-21 3
128 Addiction Remedy Centers For Substance Abuse 12527 new JoelBettencourt 2019-03-21 3
127 Traffic Therapy 47678 new GordonGoderich85327 2019-03-21 3
126 Possible Hurdles And Opportunities To Your Business Debt Collection new Archie9178150003 2019-03-21 3
125 Stylish Ways To Say I Do In Las Vegas 16935 new GOJJosh68298830 2019-03-22 2
124 Control Your Web TRAFFIC 43286 new AdellMaloney779 2019-03-22 2
123 Wonderful Green Energy Solutions Anybody Can Use! 16374 new WillieConstant409511 2019-03-22 2
122 Specialist Recruitment Organizations Could Make Your Enterprise Funds 11546 new StuartFaber10512141 2019-03-22 2
121 Do You Need An Lawyer In Ohio? 25162 new KelvinC23777241496 2019-03-22 2
120 Medicine Rehabilitation An Introduction 48338 new JuliFairthorne66 2019-03-22 2
119 Oxnard Attractions - Jim Hall Kart Racing School 36134 new QIPSibyl7180346707 2019-03-22 2
118 Michael Ealy Community Forums Who's That? 46821 new RaquelSilas56625 2019-03-22 2
117 Wildfire Productions Announces Release Of Most Recent Client Web Site: Just Art Related 33663 new MaudeTrejo100147975 2019-03-22 2
116 Addiction Therapy Centers For Substance Abuse 35240 new JaimieColechin46 2019-03-21 2
115 Las Vegas Wedding Invitation Wording - Help Is Here 18220 new GlennBaum97022535806 2019-03-21 2
114 Plumbing Problems May Possibly Need A Plumbing Specialist 16096 new AdelaidaMorshead12 2019-03-21 2
113 Addiction Remedy Centers For Substance Abuse 48248 new DiannaRiver46765 2019-03-21 2
112 The Elegant Japanese Maple Bon-sai 49887 new ErickBoan177363434 2019-03-21 2
111 Google Analytics And Google AdWords 26040 new TaylorCosta31304 2019-03-21 2
110 News And The Net 11208 new FranchescaBatista5 2019-03-21 2
109 Las Vegas Wedding Invitation Wording - Help Will Be Here 42755 new DeePuig21982270 2019-03-21 2
108 Strategies For Selecting A Cooling Builder 30241 new Christi8108864992 2019-03-21 2
107 Cost-free Web Marketing 34316 new YasminHeymann860796 2019-03-21 2
106 Valuable On Line Wedding Planning Resources 35402 new RichieMoulton15086 2019-03-21 2
105 Addiction Treatment Centers For Substance Abuse 44364 new LeonieHindwood6 2019-03-21 2
104 All-Inclusive Honey Moon Offers 48651 new IzettaMcIntyre4967 2019-03-21 2
103 Pond Hopatcong; A Holiday Paradise 35933 new MoraDalrymple067135 2019-03-21 2
102 Types Of Online Stores 30252 new Bette82501296261 2019-03-21 2
101 Painting Art Book 15784 new MickiTye0136131 2019-03-21 2
100 If The Stocks Begin At Just Under A Dollar, How Can An Investor Hope To Grow To Be Rich In The Finish? 20030 new PalmaHoutman9757278 2019-03-21 2
99 Coupon Shopping Canada Bargains 22914 new ShonaW97122720283 2019-03-21 2
98 Energy Conservation Begins At Home 32485 new EliseForsythe9413287 2019-03-21 2
97 Addiction Remedy Centers For Substance Abuse 38280 new JacquesSaville693 2019-03-21 2
96 Website To Market Your Web Company 32504 new USBDeneen54354135520 2019-03-21 2
95 Boston Plans To Fight Off Foreclosure Crisis 28421 new BrandieIrizarry 2019-03-21 2
94 Septic Tanks - Chance Symptoms In A Rural House 11775 new Louella84M81832032 2019-03-21 2
93 Recovery From Addictions, Part 4 48510 new RichieWoodfull26940 2019-03-21 2
92 Addiction Treatment Centers For Substance Abuse 17153 new CooperLinkous97394 2019-03-21 2
91 Only A Little About Prostate Cancer 44783 new KristineM784621452 2019-03-21 2
90 An Insight Into Jordan Owen 40076 new TanjaWooley2654 2019-03-21 2
89 Dirk Goes Crazy And Suns Fail To Cover! 17316 new AnnGaribay919429 2019-03-21 2
88 Totally Free World Wide Web Marketing 13233 new MerriMoor155181 2019-03-21 2
87 Criminal Defense Attorneys 30376 new Laura36T34713741922 2019-03-21 2
86 Oxnard Attractions - Jim Hall Kart Racing School 33956 new Kandis788937384119 2019-03-21 2
85 In The Event You Use Auctionblox For The Auctions? 44049 new AlvaErtel277263654 2019-03-21 2
84 What Is Hot And What Is Not About All-Inclusive Holiday Packages. 43465 new EdwinaChristman886 2019-03-21 2
83 The Finest Offers In International Tour, Hotel Reservation And Holiday Packages Services. 16553 new MauraStutchbury 2019-03-21 2
82 Addiction Remedy Centers For Substance Abuse 48521 new JannaWilbur75075 2019-03-21 2
81 How Do You Know If You've A Superb Mortgage Broker? 44656 new NestorIpr504130689090 2019-03-21 2
80 Narcotic Pain Relief: Addiction Threat And Medication 49163 new OmerP74473395148082 2019-03-21 2
79 Commercial Furniture For Any Property Owner 46074 new MarissaEge10698 2019-03-21 2
78 All You Want To Know About Earning A Residual Earnings In An Affiliate Plan 39443 new MarielPolk824894876 2019-03-21 2
77 Keep Safe When Working With Your Credit Card On Line 18842 new Kelle2023820210482547 2019-03-21 2
76 Get A Grip On Your Online TRAFFIC 33807 new Margret25N82826 2019-03-21 2
75 The Butt Lift 46371 new MollyMoose02989 2019-03-21 2
74 Discovering The Right Bankruptcy Alternatives For Your Requirements 24420 new BrianneBiddlecombe24 2019-03-21 2
73 Hillary Duff And Her Cosmetic Surgery, Dental Cosmetic Surgery That Is 30192 new JulietDownes649 2019-03-21 2
72 Do You Need An Lawyer In Ohio? 33181 new Tanja49G3530933556297 2019-03-21 2
71 Bringing Your E-Commerce To The Subsequent Step 20515 new TitusHaugen9573657 2019-03-21 2
70 Michael Oliver Audio Books 48591 new LethaRankin3865 2019-03-21 2
69 Eight Easy But Extremely Productive Techniques To Make Cash In Your Blog 24961 new AngleaLarry931685513 2019-03-21 2
68 Promotional Advertising Niche Youve Waited Long Enough 49986 new AlberthaBellino21239 2019-03-21 2
67 Bringing Your E-Commerce To The Next Step 24279 new TajMcDonald8049 2019-03-21 2
66 Septic Tanks - Chance Symptoms In A Rural Home 41508 new LorenzaW755419447316 2019-03-21 2
65 How Affiliate Marketing Online Works 31766 new GarfieldReinke44213 2019-03-21 2
64 What Is Hot And What Is Not About All-Inclusive Holiday Packages. 39930 new BrendaAltman062 2019-03-21 2
63 Finding Coupons 32700 new VenusT156307334700050 2019-03-21 2
62 Addiction Therapy Centers For Substance Abuse 22292 new EllaMcMann0864368 2019-03-21 2
61 Coupon Shopping Canada Bargains 38527 new JeanetteLaby014045 2019-03-21 2
60 How To Market With No Website 48850 new MargartCrabtree 2019-03-21 2
59 Understand The Different Kinds Of Flowers 11673 new ConstancePittard741 2019-03-21 2
58 Report Writing Fundamentals - How To Make This Lucrative Business Function 19483 new FreddieMackie2735741 2019-03-21 2
57 Ohio Schools Give Prospective Teachers A Lot Of Selections 48246 new EmmaZgm8916017242 2019-03-21 2
56 Getting Cheap Portland Car Insurance 29036 new MuoiPolk6842960 2019-03-21 2
55 Asbestos Testing- Essential Protection Against Killer Ailments 14942 new GonzaloHdo013195 2019-03-21 2
54 Another Kind Of Email Marketing Permission Based 42629 new PriscillaStodart4 2019-03-21 2
53 Is Affiliate Marketing Excellent? 12023 new PeggySmall014557 2019-03-21 2
52 Wildfire Productions Announces Release Of Most Current Client Internet Site: Just Art Related 13025 new MeriX063793158615478 2019-03-21 2
51 Carpal Tunnel Syndrome: Pinched Median Nerve At The Wrist 10977 new DanutaRays1601211275 2019-03-21 2
50 Types Of Online Stores 24669 new HelaineSchrader294 2019-03-21 2
49 News And The Net 36510 new BasilUxn196863897 2019-03-21 2
48 News And The Web 33360 new JessicaJ8710068 2019-03-21 2
47 The Truths And Myths Of Masturbation 10836 new LindaHuggins4921587 2019-03-21 2
46 Promotional Promotion Specialty Youve Waited Long Enough 20855 new WilheminaSlaughter86 2019-03-21 2
45 How You Can Develop A Money Tree 26843 HelaineE792032378 2019-03-21 2
44 Addiction Therapy Centers For Substance Abuse 23943 new SelmaRayburn0000 2019-03-22 1
43 Addiction Treatment Centers For Substance Abuse 19934 new DannieCrampton099038 2019-03-22 1
42 Report Writing Basics - How To Make This Profitable Organization Work 43467 new SamuelHalstead69 2019-03-22 1
41 Only A Little About Prostate Cancer 38987 new LucretiaL38139539424 2019-03-22 1
40 How To Podcast Using Wordpress 20342 new ClevelandGbt8699529 2019-03-22 1
39 Addiction Treatment Centers For Substance Abuse 29148 new HowardXwo23955909 2019-03-22 1
38 Why Provide A Large Amount Of Thought On Seo 40833 new CliffCagle898713401 2019-03-22 1
37 Getting Poker Guidance In A Poker Forum 24515 new LorrineFrancois259 2019-03-22 1
36 Get Out Of The Red And Attempt These Green Power Ideas 43259 new FeliciaMcKie334 2019-03-22 1
35 Learn All Of The Methods Behind Great Painting 49891 new MitchelTorrens45395 2019-03-22 1
34 Vital Facts Concerning Various Kinds Of Laravel Hosting Accessible At This Time new RoseannaBoddie013169 2019-03-22 1
33 State Roof Tiles 47893 new NorbertoYard649521 2019-03-22 1
32 Substance Abuse Treatment In-to Main-stream Of Medical Care System 23583 new Kate13V222976616 2019-03-22 1
31 Types Of Online Stores 44057 new DanWilkinson114706 2019-03-22 1
30 Strategies For Choosing The Cooling Specialist 19372 new RoyalWld89969924 2019-03-22 1
29 Dropped Hard Drive: Dont Panic 16999 new EnriqueKinney010 2019-03-22 1
28 Search Engine Optimization, SEO London And Search Engine Optimization UK 30056 new TanyaOdoms70383750 2019-03-21 1
27 Post Writing The Midas Touch Of Link Approaches 37589 new YaniraSheahan4279697 2019-03-21 1
26 Narcotic Discomfort Relief: Addiction Danger And Medication 40162 new ElanaFilson4284 2019-03-21 1
25 Where To Find Inexpensive Longterm Care Insurance In Tennessee 46250 new ElviraFortin790093 2019-03-21 1
24 Promotional Marketing Niche Youve Waited Long Enough 27921 new LanBordelon242717 2019-03-21 1
23 Septic Tanks - Threat Symptoms In A Rural House 22368 new FrancinePayton0 2019-03-21 1
22 News And The Internet 24388 new OlaLamb128779626 2019-03-21 1
21 Cock Rings Sex Toy For Men 29026 new MariaKenney770536220 2019-03-21 1
20 News And The Internet 37686 new SharonMcVilly74797 2019-03-21 1
19 Detox Or Detoxification - Whatever You Contact It , You Might Benefit 33157 new NormandBrewer8804257 2019-03-21 1
18 Addiction Therapy Centers For Substance Abuse 13022 new LolaRodarte68530267 2019-03-21 1
17 Asbestos Testing- Essential Protection Against Killer Diseases 40386 new GlenOverlock9813 2019-03-21 1
16 Dirk Goes Crazy And Suns Fail To Cover! 35229 new QJODominga0046135 2019-03-21 1
15 How To Start Utilizing Green Energy In Your Life 49400 new AliceCrompton1145 2019-03-21 1
14 How To Collect A Debt new SelinaWeatherly929 2019-03-21 1
13 An Understanding Of Mesothelioma Cause 41952 new MeridithSchulz9 2019-03-21 1
12 The Mean KSC Airsoft Guns 25812 new Philip14P556081 2019-03-21 1
11 Drug Rehabilitation An Introduction 25117 new AracelyStockdill4 2019-03-21 1
10 Methods For Choosing The Cooling Company 43284 new WindyStrack88575 2019-03-21 1
9 The Internet Advertising And Marketing Buzz: Are You Going To Be In Or Out? 37101 new Lynne23N663603999308 2019-03-21 1
8 Coupon Shopping Canada Bargains 14707 new TamaraWitmer0682214 2019-03-21 1
7 Profile information new ewisady 2019-03-22  
6 Dịch Vụ Quảng Cáo Tại Sân Bay new Mammie86S71746307 2019-03-22  
5 Ogrodzenia Poznan new ycutubyke 2019-03-22  
4 Stone Top Tiles 45224 new DellCrawford6671727 2019-03-21  
3 Bảng Báo Giá Máy Giặt Công Nghiệp Cho Những Ai Cần new EffieTucker10087 2019-03-21  
2 Commercial Debt Collection Pitfalls new GarrySulman77884587 2019-03-21  
1 Debt Collection Tips - Making A Telephone Call new CasieDuerr58472 2019-03-21